Content
SEND FEEDBACK

Daily
Averages
Monthly
Summary
Australia

TERREY HILLS, NEW SOUTH WALES


Home > Oceania > Australia > New South Wales
Elevation: 131 feet     Latitude: 33 49S     Longitude: 151 09E

WEATHER
 
SELECT A DAY
Number of Records: 298,111;   Date Range: 7/1/96 - 8/10/14
 
SHARE

PRINT THIS DATA

[ ← Previous Day ]
WEATHER ALMANAC - FEBRUARY 13, 2013
[ Next Day → ]
[ °C ]   °F
Weather ElementAverageHighLow
Temperature69.2 °F71.6 °F (1:00 pm)66.2 °F (4:30 pm)
Dewpoint61 °F64.4 °F (4:37 pm)58 °F (5:00 am)
Humidity73.9 %94 % (4:37 pm)61 % (5:00 am)
Barometer30.19 in30.25 in (11:00 am)30.15 in (1:30 am)
Wind Speed12.7 mph20.7 mph (4:16 pm)
Weather ElementAverage
Visibility7.2 mi
Wind DirectionSSE (173.1 °)

Weather ElementTotal
Precipitation---
Cooling Degree Days3.9 (Base 65)
Growing Degree Days18.9 (Base 50)
Averaged from 64 records on February 13, 2013
WEATHER CONDITIONS BREAKOUT
WIND DIRECTION BREAKOUT
WEATHER BY HOUR - FEBRUARY 13, 2013
[ °C ]   °F
Local TimeTemperatureDewpointHumidityBarometerVisibilityWind DirectionWind SpeedGust SpeedPrecipitationEventsConditions
12:00 AM69.8 °F60.8 °F73 %30.18 in6.2 miSouth (170°)12.7 mphMostly Cloudy
12:30 AM69.8 °F60.8 °F73 %30.18 in6.2 miSouth (170°)13.8 mphMostly Cloudy
1:00 AM69.8 °F59.0 °F68 %30.18 in6.2 miSouth (170°)12.7 mphMostly Cloudy
1:30 AM69.8 °F60.8 °F73 %30.15 in6.2 miSouth (170°)13.8 mphMostly Cloudy
2:00 AM69.0 °F60.0 °F65 %30.18 inSouth (180°)15.0 mph
2:00 AM69.8 °F59.0 °F68 %30.15 in6.2 miSouth (180°)15.0 mphMostly Cloudy
2:30 AM69.8 °F59.0 °F68 %30.15 in6.2 miSouth (190°)17.3 mphMostly Cloudy
3:00 AM69.0 °F60.0 °F64 %30.17 in16.0 miSouth (190°)17.3 mphMostly Cloudy
3:30 AM69.8 °F59.0 °F68 %30.15 in6.2 miSouth (190°)17.3 mphMostly Cloudy
4:00 AM69.8 °F59.0 °F68 %30.15 in6.2 miSouth (190°)17.3 mphRainLight Rain Showers
4:30 AM68.0 °F59.0 °F73 %30.15 in6.2 miSouth (190°)16.1 mphRainLight Rain Showers
5:00 AM69.0 °F58.0 °F61 %30.17 inSouth (190°)18.4 mph
5:00 AM68.0 °F59.0 °F73 %30.15 in6.2 miSouth (190°)18.4 mphRainLight Rain Showers
5:30 AM68.0 °F59.0 °F73 %30.15 in6.2 miSouth (170°)15.0 mphRainLight Rain Showers
6:00 AM69.0 °F59.0 °F64 %30.18 in12.0 miSouth (190°)15.0 mphRainLight Rain Showers
6:00 AM68.0 °F59.0 °F73 %30.15 in6.2 miSouth (190°)15.0 mphMostly Cloudy
6:30 AM68.0 °F59.0 °F73 %30.18 in6.2 miSouth (190°)17.3 mphMostly Cloudy
7:00 AM69.8 °F59.0 °F68 %30.18 in6.2 miSouth (190°)17.3 mphMostly Cloudy
7:30 AM68.0 °F59.0 °F73 %30.18 in6.2 miSouth (190°)16.1 mphMostly Cloudy
8:00 AM68.0 °F60.0 °F68 %30.22 inSSW (200°)12.7 mph
8:00 AM68.0 °F60.8 °F78 %30.21 in6.2 miSSW (200°)12.7 mphMostly Cloudy
8:30 AM68.0 °F60.8 °F78 %30.21 in6.2 miSSW (200°)15.0 mphRainLight Rain Showers
9:00 AM68.0 °F61.0 °F71 %30.23 in12.0 miSSW (200°)12.7 mphRainLight Rain Showers
9:00 AM68.0 °F60.8 °F78 %30.21 in6.2 miSSW (200°)12.7 mphRainLight Rain Showers
9:30 AM69.8 °F60.8 °F73 %30.21 in6.2 miSouth (190°)13.8 mphMostly Cloudy
10:00 AM68.0 °F60.8 °F78 %30.24 in6.2 miSouth (180°)17.3 mphRainLight Rain Showers
10:30 AM69.8 °F62.6 °F78 %30.24 in6.2 miSouth (190°)18.4 mphMostly Cloudy
11:00 AM69.0 °F62.0 °F71 %30.25 inSouth (190°)16.1 mph
11:00 AM68.0 °F60.8 °F78 %30.24 in6.2 miSouth (190°)16.1 mphMostly Cloudy
11:30 AM69.8 °F60.8 °F73 %30.21 in6.2 miSSW (200°)15.0 mphMostly Cloudy
12:00 PM70.0 °F61.0 °F65 %30.24 in16.0 miSSW (210°)17.3 mphPartly Cloudy
12:00 PM69.8 °F60.8 °F73 %30.21 in6.2 miSSW (210°)17.3 mphMostly Cloudy
12:30 PM69.8 °F60.8 °F73 %30.21 in6.2 miSouth (190°)15.0 mphMostly Cloudy
1:00 PM71.6 °F60.8 °F69 %30.21 in6.2 miSouth (180°)16.1 mphMostly Cloudy
1:30 PM71.6 °F62.6 °F73 %30.21 in6.2 miSouth (170°)18.4 mphMostly Cloudy
2:00 PM71.0 °F62.0 °F66 %30.22 inSouth (180°)19.6 mph
2:00 PM71.6 °F62.6 °F73 %30.21 in6.2 miSouth (180°)19.6 mphScattered Clouds
2:30 PM71.6 °F60.8 °F69 %30.18 in6.2 miSouth (180°)16.1 mphScattered Clouds
3:00 PM71.0 °F62.0 °F65 %30.20 in16.0 miSouth (170°)16.1 mphMostly Cloudy
3:00 PM69.8 °F62.6 °F78 %30.18 in6.2 miSouth (170°)16.1 mphMostly Cloudy
3:30 PM71.6 °F62.6 °F73 %30.18 in6.2 miSouth (180°)16.1 mphMostly Cloudy
4:00 PM71.6 °F60.8 °F69 %30.18 in6.2 miSouth (170°)15.0 mphMostly Cloudy
4:16 PM69.8 °F62.6 °F78 %30.18 in3.1 miEast (90°)20.7 mphRainRain Showers
4:30 PM66.2 °F62.6 °F88 %30.18 in2.5 miEast (80°)15.0 mphRainRain Showers
4:37 PM66.2 °F64.4 °F94 %30.18 in3.7 miENE (70°)12.7 mphRainLight Rain Showers
4:49 PM66.2 °F60.8 °F83 %30.18 in6.2 miENE (70°)8.1 mphMostly Cloudy
5:00 PM67.0 °F63.0 °F82 %30.19 inENE (60°)6.9 mph
5:00 PM68.0 °F62.6 °F83 %30.18 in6.2 miENE (60°)6.9 mphMostly Cloudy
5:30 PM69.8 °F60.8 °F73 %30.18 in6.2 miSSE (160°)5.8 mphMostly Cloudy
6:00 PM69.0 °F61.0 °F68 %30.18 in19.0 miSouth (190°)5.8 mphMostly Cloudy
6:00 PM69.8 °F60.8 °F73 %30.15 in6.2 miSouth (190°)5.8 mphMostly Cloudy
6:30 PM69.8 °F62.6 °F78 %30.15 in6.2 miSouth (190°)6.9 mphMostly Cloudy
7:00 PM69.8 °F60.8 °F73 %30.15 in6.2 miSouth (180°)8.1 mphMostly Cloudy
7:30 PM69.8 °F60.8 °F73 %30.18 in6.2 miSouth (170°)8.1 mphMostly Cloudy
8:00 PM69.8 °F60.8 °F73 %30.18 in6.2 miSouth (170°)5.8 mphMostly Cloudy
8:30 PM69.8 °F62.6 °F78 %30.18 in6.2 miSouth (170°)4.6 mphMostly Cloudy
9:00 PM69.8 °F62.6 °F78 %30.18 in6.2 miSouth (190°)4.6 mphMostly Cloudy
9:00 PM69.0 °F62.0 °F72 %30.19 in19.0 miSouth (190°)4.6 mphPartly Cloudy
9:30 PM69.8 °F62.6 °F78 %30.18 in6.2 miSouth (190°)4.6 mphMostly Cloudy
10:00 PM68.0 °F62.6 °F83 %30.18 in6.2 miSSE (160°)1.2 mphMostly Cloudy
10:30 PM68.0 °F62.6 °F83 %30.21 in6.2 miSouth (190°)3.5 mphScattered Clouds
11:00 PM68.0 °F63.0 °F80 %30.22 inSSE (160°)1.2 mph
11:00 PM68.0 °F62.6 °F83 %30.21 in6.2 miSSE (160°)1.2 mphScattered Clouds
11:30 PM68.0 °F64.4 °F88 %30.18 in6.2 miSouth (170°)3.5 mphScattered Clouds
Hourly data recorded from YSSY, located miles away from Terrey Hills, New South Wales







STORIES FROM OUR PARTNERS